Hourly Data Report for December 20, 2020

L'ASSOMPTION
QUEBEC
Current Station Operator: ECCC - MSC

45°48'34.000" N
73°26'05.000" W
21.00 m
7014160
71524
WEW

Download Data

Hourly Data (December 2020)
Hourly Data Report for December 20, 2020
TIME
LST
Temp Definition
°C
Dew Point Definition
°C
Rel Hum Definition
%
Precip. Amount Definition
mm

Wind Dir Definition
10's deg

Wind Spd Definition
km/h
Visibility Definition
km
Stn Press Definition
kPa
Hmdx Definition


Wind Chill Definition


Weather Definition


00:00 -3.7 -8.6 69 0.0 6 4   102.10   -5 LegendNANA
01:00 -3.7 -8.0 72 0.0 7 5   102.04   -6 LegendNANA
02:00 -3.9 -7.9 74 0.0 3 4   102.04   -6 LegendNANA
03:00 -3.9 -7.9 74 0.0 3 3   101.95   -5 LegendNANA
04:00 -4.6 -8.2 76 0.0 4 3   101.88   -6 LegendNANA
05:00 -4.6 -8.1 76 0.0 1 4   101.85   -6 LegendNANA
06:00 -4.7 -7.5 81 0.0 3 6   101.78   -7 LegendNANA
07:00 -4.6 -7.1 83 0.0 4 5   101.75   -7 LegendNANA
08:00 -4.1 -7.0 80 0.0 4 7   101.70   -7 LegendNANA
09:00 -3.5 -6.6 79 0.0 7 7   101.66   -6 LegendNANA
10:00 -3.0 -5.8 81 0.0 9 8   101.62   -6 LegendNANA
11:00 -2.6 -4.2 89 0.0 5 5   101.49   -5 LegendNANA
12:00 -2.0 -3.5 90 0.4 9 6   101.35   -4 LegendNANA
13:00 -1.5 -2.8 91 0.5 0 1   101.26   -2 LegendNANA
14:00 -1.3 -2.4 92 0.0 1 3   101.17   -2 LegendNANA
15:00 -1.3 -2.6 91 0.5 15 13   101.15   -6 LegendNANA
16:00 -1.4 -2.1 95 1.2 13 8   101.11   -4 LegendNANA
17:00 -0.8 -1.6 94 0.5 17 14   101.08   -5 LegendNANA
18:00 -0.4 -1.2 94 0.7 17 14   101.04   -5 LegendNANA
19:00 -0.4 -1.3 93 0.2 18 16   101.00   -5 LegendNANA
20:00 -0.1 -1.4 91 0.0 17 13   100.97   -4 LegendNANA
21:00 -0.1 -1.2 92 0.2 17 11   100.94   -4 LegendNANA
22:00 0.0 -0.9 94 0.0 18 11   100.92   -4 LegendNANA
23:00 0.1 -0.9 93 0.2 17 13   100.91     LegendNANA

Notes on Data Quality.

Legend

  • E = Estimated
  • M = Missing
  • NA = Not Available*
  • [empty] = Indicates an unobserved value
Date modified: